Time,TemperatureF,DewpointF,PressureIn,WindDirection,WindDirectionDegrees,WindSpeedMPH,WindSpeedGustMPH,Humidity,HourlyPrecipIn,Conditions,Clouds,dailyrainin,SoftwareType,DateUTC
2013-01-16 00:04:00,37.6,8.2,30.22,ENE,57,5.0,6.0,29,0.00,,,-99.99,Weather View 32 v70,2013-01-16 05:04:00,
2013-01-16 00:09:00,37.6,8.2,30.22,NE,45,5.0,6.0,29,0.00,,,-99.99,Weather View 32 v70,2013-01-16 05:09:00,
2013-01-16 00:14:00,37.6,8.2,30.22,NE,39,4.0,6.0,29,0.00,,,-99.99,Weather View 32 v70,2013-01-16 05:14:00,
2013-01-16 00:19:00,37.6,8.2,30.22,NE,48,3.0,6.0,29,0.00,,,-99.99,Weather View 32 v70,2013-01-16 05:19:00,
2013-01-16 00:25:00,37.6,8.2,30.22,NNE,22,2.0,6.0,29,0.00,,,-99.99,Weather View 32 v70,2013-01-16 05:25:00,
2013-01-16 00:29:00,37.6,8.9,30.22,NNE,17,3.0,6.0,30,0.00,,,-99.99,Weather View 32 v70,2013-01-16 05:29:00,
2013-01-16 00:30:00,37.6,8.9,30.22,NNE,17,3.0,6.0,30,0.00,,,-99.99,Weather View 32 v70,2013-01-16 05:30:00,
2013-01-16 00:34:00,37.6,8.9,30.22,NNE,14,3.0,6.0,30,0.00,,,-99.99,Weather View 32 v70,2013-01-16 05:34:00,
2013-01-16 00:39:00,37.6,8.9,30.22,NNE,14,0.0,6.0,30,0.00,,,-99.99,Weather View 32 v70,2013-01-16 05:39:00,
2013-01-16 00:44:00,37.4,8.8,30.22,NNE,14,0.0,6.0,30,0.00,,,-99.99,Weather View 32 v70,2013-01-16 05:44:00,
2013-01-16 00:50:00,37.4,8.8,30.22,NNE,14,0.0,6.0,30,0.00,,,-99.99,Weather View 32 v70,2013-01-16 05:50:00,
2013-01-16 00:59:00,36.9,11.1,30.22,NE,36,3.0,6.0,34,0.00,,,-99.99,Weather View 32 v70,2013-01-16 05:59:00,
2013-01-16 01:04:00,36.5,13.9,30.22,NE,47,5.0,6.0,39,0.00,,,-99.99,Weather View 32 v70,2013-01-16 06:04:00,
2013-01-16 01:10:00,36.0,14.0,30.22,NE,41,4.0,6.0,40,0.00,,,-99.99,Weather View 32 v70,2013-01-16 06:10:00,
2013-01-16 01:19:00,35.2,13.9,30.22,NE,41,0.0,6.0,41,0.00,,,-99.99,Weather View 32 v70,2013-01-16 06:19:00,
2013-01-16 01:24:00,34.9,13.5,30.22,NE,52,0.0,6.0,41,0.00,,,-99.99,Weather View 32 v70,2013-01-16 06:24:00,
2013-01-16 01:29:00,34.5,13.2,30.22,ENE,58,0.0,6.0,41,0.00,,,-99.99,Weather View 32 v70,2013-01-16 06:29:00,
2013-01-16 01:31:00,34.5,13.2,30.22,ENE,58,0.0,6.0,41,0.00,,,-99.99,Weather View 32 v70,2013-01-16 06:31:00,
2013-01-16 01:35:00,34.3,13.1,30.22,ENE,58,0.0,6.0,41,0.00,,,-99.99,Weather View 32 v70,2013-01-16 06:35:00,
2013-01-16 01:40:00,34.2,12.9,30.22,ENE,58,0.0,6.0,41,0.00,,,-99.99,Weather View 32 v70,2013-01-16 06:40:00,
2013-01-16 01:49:00,34.2,13.4,30.22,ENE,58,0.0,6.0,42,0.00,,,-99.99,Weather View 32 v70,2013-01-16 06:49:00,
2013-01-16 01:54:00,34.2,14.5,30.22,ENE,58,0.0,6.0,44,0.00,,,-99.99,Weather View 32 v70,2013-01-16 06:54:00,
2013-01-16 02:00:00,34.0,14.3,30.22,ENE,58,0.0,6.0,44,0.00,,,-99.99,Weather View 32 v70,2013-01-16 07:00:00,
2013-01-16 02:09:00,34.0,14.9,30.22,ENE,58,0.0,5.0,45,0.00,,,-99.99,Weather View 32 v70,2013-01-16 07:09:00,
2013-01-16 02:14:00,34.0,15.4,30.22,ENE,58,0.0,4.0,46,0.00,,,-99.99,Weather View 32 v70,2013-01-16 07:14:00,
2013-01-16 02:19:00,34.0,15.4,30.22,ENE,58,0.0,0.0,46,0.00,,,-99.99,Weather View 32 v70,2013-01-16 07:19:00,
2013-01-16 02:25:00,34.0,16.3,30.22,ENE,58,0.0,0.0,48,0.00,,,-99.99,Weather View 32 v70,2013-01-16 07:25:00,
2013-01-16 02:29:00,34.0,17.3,30.22,ENE,58,2.0,3.0,50,0.00,,,-99.99,Weather View 32 v70,2013-01-16 07:29:00,
2013-01-16 02:34:00,34.0,18.6,30.19,ENE,58,0.0,3.0,53,0.00,,,-99.99,Weather View 32 v70,2013-01-16 07:34:00,
2013-01-16 02:39:00,34.0,20.7,30.19,ENE,74,0.0,4.0,58,0.00,,,-99.99,Weather View 32 v70,2013-01-16 07:39:00,
2013-01-16 02:44:00,34.0,23.1,30.19,ENE,76,2.0,4.0,64,0.08,,,-99.99,Weather View 32 v70,2013-01-16 07:44:00,
2013-01-16 02:50:00,34.0,22.7,30.19,ENE,73,3.0,5.0,63,0.08,,,-99.99,Weather View 32 v70,2013-01-16 07:50:00,
2013-01-16 02:54:00,34.2,24.7,30.19,East,81,2.0,5.0,68,0.08,,,-99.99,Weather View 32 v70,2013-01-16 07:54:00,
2013-01-16 02:59:00,34.3,26.6,30.19,East,89,4.0,5.0,73,0.08,,,-99.99,Weather View 32 v70,2013-01-16 07:59:00,
2013-01-16 03:09:00,34.7,30.1,30.16,East,79,3.0,6.0,83,0.08,,,-99.99,Weather View 32 v70,2013-01-16 08:09:00,
2013-01-16 03:15:00,34.9,30.8,30.16,NE,55,6.0,6.0,85,0.08,,,-99.99,Weather View 32 v70,2013-01-16 08:15:00,
2013-01-16 03:24:00,34.9,31.4,30.16,NNE,15,5.0,6.0,87,0.08,,,-99.99,Weather View 32 v70,2013-01-16 08:24:00,
2013-01-16 03:29:00,34.7,31.5,30.16,NNE,23,5.0,9.0,88,0.08,,,-99.99,Weather View 32 v70,2013-01-16 08:29:00,
2013-01-16 03:32:00,34.7,31.5,30.16,NNE,23,5.0,9.0,88,0.08,,,-99.99,Weather View 32 v70,2013-01-16 08:32:00,
2013-01-16 03:34:00,34.3,31.2,30.16,NNE,19,4.0,9.0,88,0.08,,,-99.99,Weather View 32 v70,2013-01-16 08:34:00,
2013-01-16 03:39:00,34.0,30.8,30.16,NNE,32,3.0,9.0,88,0.08,,,-99.99,Weather View 32 v70,2013-01-16 08:39:00,
2013-01-16 03:45:00,33.8,30.6,30.16,North,5,5.0,9.0,88,0.00,,,-99.99,Weather View 32 v70,2013-01-16 08:45:00,
2013-01-16 03:49:00,33.6,31.0,30.14,NE,46,5.0,9.0,90,0.00,,,-99.99,Weather View 32 v70,2013-01-16 08:49:00,
2013-01-16 03:54:00,33.4,30.8,30.14,NNE,30,4.0,9.0,90,0.00,,,-99.99,Weather View 32 v70,2013-01-16 08:54:00,
2013-01-16 03:59:00,33.4,31.1,30.14,NNE,21,4.0,9.0,91,0.00,,,-99.99,Weather View 32 v70,2013-01-16 08:59:00,
2013-01-16 04:05:00,33.3,31.2,30.14,NE,41,4.0,9.0,92,0.00,,,-99.99,Weather View 32 v70,2013-01-16 09:05:00,
2013-01-16 04:09:00,33.3,31.2,30.14,NNE,20,4.0,9.0,92,0.00,,,-99.99,Weather View 32 v70,2013-01-16 09:09:00,
2013-01-16 04:14:00,33.3,31.2,30.14,NNE,14,4.0,9.0,92,0.00,,,-99.99,Weather View 32 v70,2013-01-16 09:14:00,
2013-01-16 04:19:00,33.3,31.2,30.14,North,8,3.0,9.0,92,0.00,,,-99.99,Weather View 32 v70,2013-01-16 09:19:00,
2013-01-16 04:25:00,33.3,31.2,30.14,North,9,0.0,9.0,92,0.00,,,-99.99,Weather View 32 v70,2013-01-16 09:25:00,
2013-01-16 04:30:00,33.3,31.5,30.14,NNE,18,0.0,8.0,93,0.00,,,-99.99,Weather View 32 v70,2013-01-16 09:30:00,
2013-01-16 04:33:00,33.3,31.5,30.14,NNE,18,0.0,8.0,93,0.00,,,-99.99,Weather View 32 v70,2013-01-16 09:33:00,
2013-01-16 04:35:00,33.3,31.5,30.14,NNW,332,0.0,8.0,93,0.00,,,-99.99,Weather View 32 v70,2013-01-16 09:35:00,
2013-01-16 04:39:00,33.3,31.7,30.14,NNE,16,0.0,8.0,94,0.00,,,-99.99,Weather View 32 v70,2013-01-16 09:39:00,
2013-01-16 04:44:00,33.3,32.0,30.14,NNE,18,3.0,8.0,95,0.00,,,-99.99,Weather View 32 v70,2013-01-16 09:44:00,
2013-01-16 04:49:00,33.3,32.0,30.14,NNE,31,4.0,6.0,95,0.00,,,-99.99,Weather View 32 v70,2013-01-16 09:49:00,
2013-01-16 04:54:00,33.3,32.0,30.14,NNE,33,0.0,6.0,95,0.00,,,-99.99,Weather View 32 v70,2013-01-16 09:54:00,
2013-01-16 05:00:00,33.3,32.2,30.14,NNE,21,0.0,6.0,96,0.00,,,-99.99,Weather View 32 v70,2013-01-16 10:00:00,
2013-01-16 05:04:00,33.3,32.0,30.14,NE,38,0.0,6.0,95,0.00,,,-99.99,Weather View 32 v70,2013-01-16 10:04:00,
2013-01-16 05:09:00,33.3,32.2,30.14,North,5,0.0,6.0,96,0.00,,,-99.99,Weather View 32 v70,2013-01-16 10:09:00,
2013-01-16 05:14:00,33.3,32.2,30.14,NNE,18,0.0,6.0,96,0.00,,,-99.99,Weather View 32 v70,2013-01-16 10:14:00,
2013-01-16 05:20:00,33.3,32.5,30.11,NNE,25,0.0,6.0,97,0.00,,,-99.99,Weather View 32 v70,2013-01-16 10:20:00,
2013-01-16 05:24:00,33.3,32.2,30.11,NNE,32,0.0,6.0,96,0.00,,,-99.99,Weather View 32 v70,2013-01-16 10:24:00,
2013-01-16 05:29:00,33.3,32.2,30.11,NNE,33,0.0,6.0,96,0.00,,,-99.99,Weather View 32 v70,2013-01-16 10:29:00,
2013-01-16 05:33:00,33.3,32.2,30.11,NNE,33,0.0,6.0,96,0.00,,,-99.99,Weather View 32 v70,2013-01-16 10:33:00,
2013-01-16 05:39:00,33.3,32.2,30.11,North,11,0.0,6.0,96,0.00,,,-99.99,Weather View 32 v70,2013-01-16 10:39:00,
2013-01-16 05:45:00,33.3,32.2,30.11,NNE,14,0.0,6.0,96,0.00,,,-99.99,Weather View 32 v70,2013-01-16 10:45:00,
2013-01-16 05:50:00,33.3,32.2,30.11,NE,35,0.0,4.0,96,0.00,,,-99.99,Weather View 32 v70,2013-01-16 10:50:00,
2013-01-16 05:54:00,33.3,32.2,30.11,NNE,20,0.0,0.0,96,0.00,,,-99.99,Weather View 32 v70,2013-01-16 10:54:00,
2013-01-16 05:59:00,33.3,32.2,30.11,NNE,23,0.0,0.0,96,0.00,,,-99.99,Weather View 32 v70,2013-01-16 10:59:00,
2013-01-16 06:10:00,33.3,32.2,30.11,ENE,70,0.0,0.0,96,0.00,,,-99.99,Weather View 32 v70,2013-01-16 11:10:00,
2013-01-16 06:14:00,33.4,32.4,30.11,NE,50,0.0,0.0,96,0.00,,,-99.99,Weather View 32 v70,2013-01-16 11:14:00,
2013-01-16 06:19:00,33.6,32.6,30.11,NE,54,0.0,0.0,96,0.00,,,-99.99,Weather View 32 v70,2013-01-16 11:19:00,
2013-01-16 06:29:00,33.6,32.6,30.11,NE,38,0.0,0.0,96,0.00,,,-99.99,Weather View 32 v70,2013-01-16 11:29:00,
2013-01-16 06:34:00,33.6,32.6,30.11,NE,38,0.0,0.0,96,0.00,,,-99.99,Weather View 32 v70,2013-01-16 11:34:00,
2013-01-16 06:40:00,33.6,32.6,30.11,ENE,68,0.0,0.0,96,0.00,,,-99.99,Weather View 32 v70,2013-01-16 11:40:00,
2013-01-16 06:45:00,33.6,32.6,30.11,NNE,24,0.0,0.0,96,0.00,,,-99.99,Weather View 32 v70,2013-01-16 11:45:00,
2013-01-16 06:49:00,33.6,32.6,30.11,NNE,30,0.0,0.0,96,0.00,,,-99.99,Weather View 32 v70,2013-01-16 11:49:00,
2013-01-16 06:55:00,33.6,32.6,30.11,NNE,31,0.0,0.0,96,0.00,,,-99.99,Weather View 32 v70,2013-01-16 11:55:00,
2013-01-16 07:04:00,33.6,32.6,30.08,NE,37,0.0,0.0,96,0.00,,,-99.99,Weather View 32 v70,2013-01-16 12:04:00,
2013-01-16 07:09:00,33.6,32.6,30.08,NNE,19,0.0,0.0,96,0.00,,,-99.99,Weather View 32 v70,2013-01-16 12:09:00,
2013-01-16 07:14:00,33.8,32.8,30.08,ENE,63,0.0,0.0,96,0.00,,,-99.99,Weather View 32 v70,2013-01-16 12:14:00,
2013-01-16 07:19:00,33.8,32.8,30.08,ENE,75,0.0,0.0,96,0.00,,,-99.99,Weather View 32 v70,2013-01-16 12:19:00,
2013-01-16 07:24:00,33.8,32.8,30.08,East,83,0.0,0.0,96,0.00,,,-99.99,Weather View 32 v70,2013-01-16 12:24:00,
2013-01-16 07:29:00,34.0,33.0,30.08,ENE,73,0.0,0.0,96,0.04,,,-99.99,Weather View 32 v70,2013-01-16 12:29:00,
2013-01-16 07:34:00,34.0,33.0,30.08,ENE,63,0.0,0.0,96,0.04,,,-99.99,Weather View 32 v70,2013-01-16 12:34:00,
2013-01-16 07:40:00,34.0,33.0,30.08,ENE,62,0.0,0.0,96,0.04,,,-99.99,Weather View 32 v70,2013-01-16 12:40:00,
2013-01-16 07:44:00,34.2,33.1,30.08,ENE,57,0.0,0.0,96,0.04,,,-99.99,Weather View 32 v70,2013-01-16 12:44:00,
2013-01-16 07:50:00,34.2,33.1,30.08,ENE,58,0.0,0.0,96,0.04,,,-99.99,Weather View 32 v70,2013-01-16 12:50:00,
2013-01-16 07:59:00,34.2,33.1,30.08,ENE,60,0.0,3.0,96,0.04,,,-99.99,Weather View 32 v70,2013-01-16 12:59:00,
2013-01-16 08:04:00,34.2,33.1,30.08,NE,39,0.0,3.0,96,0.08,,,-99.99,Weather View 32 v70,2013-01-16 13:04:00,
2013-01-16 08:10:00,34.3,33.3,30.08,NE,46,0.0,3.0,96,0.08,,,-99.99,Weather View 32 v70,2013-01-16 13:10:00,
2013-01-16 08:14:00,34.3,33.3,30.08,ENE,71,0.0,3.0,96,0.08,,,-99.99,Weather View 32 v70,2013-01-16 13:14:00,
2013-01-16 08:20:00,34.3,33.3,30.08,NE,40,0.0,3.0,96,0.08,,,-99.99,Weather View 32 v70,2013-01-16 13:20:00,
2013-01-16 08:24:00,34.3,33.3,30.08,NE,50,0.0,3.0,96,0.08,,,-99.99,Weather View 32 v70,2013-01-16 13:24:00,
2013-01-16 08:29:00,34.5,33.5,30.08,East,88,0.0,3.0,96,0.04,,,-99.99,Weather View 32 v70,2013-01-16 13:29:00,
2013-01-16 08:35:00,34.5,33.8,30.08,NNE,28,0.0,3.0,97,0.04,,,-99.99,Weather View 32 v70,2013-01-16 13:35:00,
2013-01-16 08:44:00,34.5,33.8,30.08,NNE,17,6.0,8.0,97,0.08,,,-99.99,Weather View 32 v70,2013-01-16 13:44:00,
2013-01-16 08:49:00,34.5,33.8,30.08,North,4,0.0,8.0,97,0.08,,,-99.99,Weather View 32 v70,2013-01-16 13:49:00,
2013-01-16 08:55:00,34.7,33.9,30.08,NE,35,3.0,8.0,97,0.08,,,-99.99,Weather View 32 v70,2013-01-16 13:55:00,
2013-01-16 09:05:00,34.7,33.9,30.08,NE,49,4.0,8.0,97,0.04,,,-99.99,Weather View 32 v70,2013-01-16 14:05:00,
2013-01-16 09:10:00,34.7,33.9,30.08,NE,47,5.0,8.0,97,0.04,,,-99.99,Weather View 32 v70,2013-01-16 14:10:00,
2013-01-16 09:15:00,34.7,33.7,30.08,NE,35,4.0,8.0,96,0.04,,,-99.99,Weather View 32 v70,2013-01-16 14:15:00,
2013-01-16 09:25:00,34.7,33.7,30.05,NE,49,4.0,8.0,96,0.04,,,-99.99,Weather View 32 v70,2013-01-16 14:25:00,
2013-01-16 09:35:00,34.9,34.1,30.02,ENE,57,5.0,8.0,97,0.08,,,-99.99,Weather View 32 v70,2013-01-16 14:35:00,
2013-01-16 09:36:00,34.9,34.1,30.02,ENE,57,5.0,8.0,97,0.08,,,-99.99,Weather View 32 v70,2013-01-16 14:36:00,
2013-01-16 09:45:00,35.1,34.3,30.02,NE,53,5.0,8.0,97,0.04,,,-99.99,Weather View 32 v70,2013-01-16 14:45:00,
2013-01-16 09:50:00,35.1,34.3,29.99,NE,40,4.0,8.0,97,0.04,,,-99.99,Weather View 32 v70,2013-01-16 14:50:00,
2013-01-16 09:54:00,35.2,34.5,29.99,NE,56,6.0,8.0,97,0.04,,,-99.99,Weather View 32 v70,2013-01-16 14:54:00,
2013-01-16 10:00:00,35.2,34.5,29.99,NE,50,6.0,8.0,97,0.04,,,-99.99,Weather View 32 v70,2013-01-16 15:00:00,
2013-01-16 10:04:00,35.2,34.5,29.99,ENE,57,6.0,8.0,97,0.04,,,-99.99,Weather View 32 v70,2013-01-16 15:04:00,
2013-01-16 10:09:00,35.4,34.7,29.99,ENE,76,4.0,8.0,97,0.04,,,-99.99,Weather View 32 v70,2013-01-16 15:09:00,
2013-01-16 10:14:00,35.4,34.7,29.99,NE,47,4.0,8.0,97,0.04,,,-99.99,Weather View 32 v70,2013-01-16 15:14:00,
2013-01-16 10:19:00,35.4,34.7,29.96,ENE,68,6.0,11.0,97,0.08,,,-99.99,Weather View 32 v70,2013-01-16 15:19:00,
2013-01-16 10:24:00,35.4,34.7,29.96,NNE,29,4.0,11.0,97,0.08,,,-99.99,Weather View 32 v70,2013-01-16 15:24:00,
2013-01-16 10:30:00,35.4,34.7,29.96,NE,54,6.0,11.0,97,0.04,,,-99.99,Weather View 32 v70,2013-01-16 15:30:00,
2013-01-16 10:34:00,35.6,34.6,29.96,North,11,5.0,11.0,96,0.04,,,-99.99,Weather View 32 v70,2013-01-16 15:34:00,
2013-01-16 10:39:00,35.6,34.6,29.96,NE,40,5.0,11.0,96,0.04,,,-99.99,Weather View 32 v70,2013-01-16 15:39:00,
2013-01-16 10:45:00,35.6,34.6,29.96,NNE,12,0.0,11.0,96,0.04,,,-99.99,Weather View 32 v70,2013-01-16 15:45:00,
2013-01-16 10:50:00,35.6,34.6,29.93,ENE,63,3.0,11.0,96,0.04,,,-99.99,Weather View 32 v70,2013-01-16 15:50:00,
2013-01-16 10:54:00,35.8,34.8,29.93,NNE,32,3.0,11.0,96,0.04,,,-99.99,Weather View 32 v70,2013-01-16 15:54:00,
2013-01-16 10:59:00,35.8,34.8,29.93,NE,48,3.0,11.0,96,0.04,,,-99.99,Weather View 32 v70,2013-01-16 15:59:00,
2013-01-16 11:05:00,36.0,34.9,29.93,NNE,33,5.0,11.0,96,0.04,,,-99.99,Weather View 32 v70,2013-01-16 16:05:00,
2013-01-16 11:14:00,36.3,35.3,29.93,NE,52,0.0,11.0,96,0.04,,,-99.99,Weather View 32 v70,2013-01-16 16:14:00,
2013-01-16 11:19:00,36.3,35.3,29.93,NE,52,0.0,11.0,96,0.04,,,-99.99,Weather View 32 v70,2013-01-16 16:19:00,
2013-01-16 11:24:00,36.5,35.5,29.93,NNE,26,3.0,6.0,96,0.04,,,-99.99,Weather View 32 v70,2013-01-16 16:24:00,
2013-01-16 11:30:00,36.7,35.6,29.93,NNE,22,0.0,6.0,96,0.04,,,-99.99,Weather View 32 v70,2013-01-16 16:30:00,
2013-01-16 11:35:00,36.7,35.6,29.90,NNE,28,0.0,6.0,96,0.04,,,-99.99,Weather View 32 v70,2013-01-16 16:35:00,
2013-01-16 11:37:00,36.7,35.6,29.90,NNE,28,0.0,6.0,96,0.04,,,-99.99,Weather View 32 v70,2013-01-16 16:37:00,
2013-01-16 11:44:00,36.7,35.6,29.90,NNW,348,4.0,6.0,96,0.04,,,-99.99,Weather View 32 v70,2013-01-16 16:44:00,
2013-01-16 11:49:00,36.5,35.5,29.93,NNE,26,2.0,6.0,96,0.04,,,-99.99,Weather View 32 v70,2013-01-16 16:49:00,
2013-01-16 11:54:00,36.5,35.5,29.93,North,3,4.0,6.0,96,0.04,,,-99.99,Weather View 32 v70,2013-01-16 16:54:00,
2013-01-16 12:00:00,36.5,35.5,29.93,North,1,2.0,6.0,96,0.04,,,-99.99,Weather View 32 v70,2013-01-16 17:00:00,
2013-01-16 12:05:00,36.5,35.5,29.93,North,4,3.0,6.0,96,0.04,,,-99.99,Weather View 32 v70,2013-01-16 17:05:00,
2013-01-16 12:15:00,36.5,35.5,29.93,North,5,4.0,5.0,96,0.08,,,-99.99,Weather View 32 v70,2013-01-16 17:15:00,
2013-01-16 12:19:00,36.5,35.5,29.90,North,357,2.0,5.0,96,0.04,,,-99.99,Weather View 32 v70,2013-01-16 17:19:00,
2013-01-16 12:24:00,36.3,35.3,29.90,North,8,5.0,6.0,96,0.04,,,-99.99,Weather View 32 v70,2013-01-16 17:24:00,
2013-01-16 12:30:00,36.3,35.3,29.90,North,3,3.0,6.0,96,0.04,,,-99.99,Weather View 32 v70,2013-01-16 17:30:00,
2013-01-16 12:34:00,36.3,35.3,29.90,NNW,336,3.0,6.0,96,0.04,,,-99.99,Weather View 32 v70,2013-01-16 17:34:00,
2013-01-16 12:37:00,36.3,35.3,29.90,NNW,336,3.0,6.0,96,0.04,,,-99.99,Weather View 32 v70,2013-01-16 17:37:00,
2013-01-16 12:39:00,36.3,35.3,29.90,North,7,4.0,9.0,96,0.04,,,-99.99,Weather View 32 v70,2013-01-16 17:39:00,
2013-01-16 12:44:00,36.3,35.3,29.90,North,357,4.0,9.0,96,0.04,,,-99.99,Weather View 32 v70,2013-01-16 17:44:00,
2013-01-16 12:49:00,36.1,35.1,29.90,NNW,331,6.0,9.0,96,0.04,,,-99.99,Weather View 32 v70,2013-01-16 17:49:00,
2013-01-16 12:54:00,36.1,35.1,29.90,NNE,23,6.0,9.0,96,0.04,,,-99.99,Weather View 32 v70,2013-01-16 17:54:00,
2013-01-16 13:00:00,36.0,34.9,29.90,NNE,14,8.0,9.0,96,0.04,,,-99.99,Weather View 32 v70,2013-01-16 18:00:00,
2013-01-16 13:09:00,36.0,34.9,29.90,North,357,5.0,9.0,96,0.08,,,-99.99,Weather View 32 v70,2013-01-16 18:09:00,
2013-01-16 13:14:00,36.0,34.9,29.90,North,10,5.0,9.0,96,0.04,,,-99.99,Weather View 32 v70,2013-01-16 18:14:00,
2013-01-16 13:20:00,36.0,34.9,29.90,North,10,6.0,9.0,96,0.04,,,-99.99,Weather View 32 v70,2013-01-16 18:20:00,
2013-01-16 13:24:00,36.0,34.9,29.90,North,357,3.0,10.0,96,0.04,,,-99.99,Weather View 32 v70,2013-01-16 18:24:00,
2013-01-16 13:30:00,36.0,34.9,29.90,NE,34,6.0,10.0,96,0.04,,,-99.99,Weather View 32 v70,2013-01-16 18:30:00,
2013-01-16 13:38:00,35.8,34.8,29.90,NNE,23,5.0,10.0,96,0.04,,,-99.99,Weather View 32 v70,2013-01-16 18:38:00,
2013-01-16 13:39:00,35.8,34.8,29.90,North,353,3.0,10.0,96,0.04,,,-99.99,Weather View 32 v70,2013-01-16 18:39:00,
2013-01-16 13:44:00,35.8,34.8,29.90,NNE,16,3.0,10.0,96,0.04,,,-99.99,Weather View 32 v70,2013-01-16 18:44:00,
2013-01-16 13:50:00,35.8,34.8,29.87,North,357,4.0,10.0,96,0.04,,,-99.99,Weather View 32 v70,2013-01-16 18:50:00,
2013-01-16 13:55:00,35.8,34.8,29.87,NNE,23,3.0,10.0,96,0.04,,,-99.99,Weather View 32 v70,2013-01-16 18:55:00,
2013-01-16 13:59:00,35.8,34.8,29.87,NE,40,5.0,10.0,96,0.04,,,-99.99,Weather View 32 v70,2013-01-16 18:59:00,
2013-01-16 14:05:00,35.6,34.6,29.84,ENE,71,4.0,10.0,96,0.04,,,-99.99,Weather View 32 v70,2013-01-16 19:05:00,
2013-01-16 14:09:00,35.6,34.6,29.84,East,85,5.0,10.0,96,0.00,,,-99.99,Weather View 32 v70,2013-01-16 19:09:00,
2013-01-16 14:14:00,35.6,34.6,29.84,ENE,78,4.0,10.0,96,0.00,,,-99.99,Weather View 32 v70,2013-01-16 19:14:00,
2013-01-16 14:19:00,35.6,34.6,29.81,ESE,108,3.0,10.0,96,0.00,,,-99.99,Weather View 32 v70,2013-01-16 19:19:00,
2013-01-16 14:24:00,35.6,34.6,29.81,East,94,0.0,9.0,96,0.00,,,-99.99,Weather View 32 v70,2013-01-16 19:24:00,
2013-01-16 14:29:00,35.6,34.6,29.81,ENE,68,2.0,9.0,96,0.04,,,-99.99,Weather View 32 v70,2013-01-16 19:29:00,
2013-01-16 14:39:00,35.8,34.8,29.78,ENE,63,0.0,9.0,96,0.04,,,-99.99,Weather View 32 v70,2013-01-16 19:39:00,
2013-01-16 14:44:00,35.8,34.8,29.78,ENE,63,0.0,8.0,96,0.04,,,-99.99,Weather View 32 v70,2013-01-16 19:44:00,
2013-01-16 14:49:00,35.8,34.8,29.78,North,357,3.0,8.0,96,0.04,,,-99.99,Weather View 32 v70,2013-01-16 19:49:00,
2013-01-16 14:54:00,36.0,35.2,29.78,NNE,21,10.0,10.0,97,0.04,,,-99.99,Weather View 32 v70,2013-01-16 19:54:00,
2013-01-16 14:59:00,36.1,35.4,29.78,NNE,17,5.0,11.0,97,0.04,,,-99.99,Weather View 32 v70,2013-01-16 19:59:00,
2013-01-16 15:04:00,36.1,35.4,29.81,NNW,342,6.0,11.0,97,0.04,,,-99.99,Weather View 32 v70,2013-01-16 20:04:00,
2013-01-16 15:10:00,36.1,35.4,29.81,North,353,6.0,11.0,97,0.04,,,-99.99,Weather View 32 v70,2013-01-16 20:10:00,
2013-01-16 15:15:00,36.1,35.4,29.81,North,357,4.0,11.0,97,0.04,,,-99.99,Weather View 32 v70,2013-01-16 20:15:00,
2013-01-16 15:19:00,36.1,35.4,29.81,North,353,6.0,11.0,97,0.04,,,-99.99,Weather View 32 v70,2013-01-16 20:19:00,
2013-01-16 15:24:00,36.0,34.9,29.81,NNE,29,6.0,11.0,96,0.04,,,-99.99,Weather View 32 v70,2013-01-16 20:24:00,
2013-01-16 15:29:00,35.6,34.6,29.81,North,353,10.0,16.0,96,0.00,,,-99.99,Weather View 32 v70,2013-01-16 20:29:00,
2013-01-16 15:34:00,35.6,34.6,29.84,North,3,8.0,16.0,96,0.00,,,-99.99,Weather View 32 v70,2013-01-16 20:34:00,
2013-01-16 15:39:00,35.6,34.6,29.84,North,3,8.0,16.0,96,0.00,,,-99.99,Weather View 32 v70,2013-01-16 20:39:00,
2013-01-16 15:44:00,35.6,34.6,29.84,North,353,8.0,16.0,96,0.00,,,-99.99,Weather View 32 v70,2013-01-16 20:44:00,
2013-01-16 15:49:00,35.4,34.7,29.84,NNE,14,9.0,16.0,97,0.00,,,-99.99,Weather View 32 v70,2013-01-16 20:49:00,
2013-01-16 15:54:00,35.4,34.7,29.84,North,353,3.0,16.0,97,0.00,,,-99.99,Weather View 32 v70,2013-01-16 20:54:00,
2013-01-16 15:59:00,35.4,34.7,29.84,North,357,6.0,16.0,97,0.00,,,-99.99,Weather View 32 v70,2013-01-16 20:59:00,
2013-01-16 16:04:00,35.4,34.7,29.84,North,349,3.0,16.0,97,0.00,,,-99.99,Weather View 32 v70,2013-01-16 21:04:00,
2013-01-16 16:10:00,35.6,34.6,29.84,NNW,338,6.0,16.0,96,0.00,,,-99.99,Weather View 32 v70,2013-01-16 21:10:00,
2013-01-16 16:14:00,35.6,34.6,29.84,NNW,345,6.0,16.0,96,0.00,,,-99.99,Weather View 32 v70,2013-01-16 21:14:00,
2013-01-16 16:20:00,35.6,34.8,29.87,NNW,344,4.0,16.0,97,0.00,,,-99.99,Weather View 32 v70,2013-01-16 21:20:00,
2013-01-16 16:25:00,35.6,34.6,29.87,NNE,16,2.0,16.0,96,0.00,,,-99.99,Weather View 32 v70,2013-01-16 21:25:00,
2013-01-16 16:29:00,35.4,34.7,29.87,NNE,23,3.0,16.0,97,0.00,,,-99.99,Weather View 32 v70,2013-01-16 21:29:00,
2013-01-16 16:35:00,35.4,34.7,29.84,NNW,344,3.0,13.0,97,0.00,,,-99.99,Weather View 32 v70,2013-01-16 21:35:00,
2013-01-16 16:40:00,35.4,34.7,29.84,North,357,6.0,13.0,97,0.00,,,-99.99,Weather View 32 v70,2013-01-16 21:40:00,
2013-01-16 16:44:00,35.4,34.7,29.84,NE,35,4.0,12.0,97,0.00,,,-99.99,Weather View 32 v70,2013-01-16 21:44:00,
2013-01-16 16:49:00,35.6,34.8,29.87,NNE,32,6.0,11.0,97,0.04,,,-99.99,Weather View 32 v70,2013-01-16 21:49:00,
2013-01-16 16:54:00,35.6,34.8,29.87,NNE,24,8.0,11.0,97,0.04,,,-99.99,Weather View 32 v70,2013-01-16 21:54:00,
2013-01-16 16:59:00,35.6,34.8,29.87,NNE,21,4.0,10.0,97,0.04,,,-99.99,Weather View 32 v70,2013-01-16 21:59:00,
2013-01-16 17:04:00,35.8,35.0,29.84,NNE,20,5.0,11.0,97,0.04,,,-99.99,Weather View 32 v70,2013-01-16 22:04:00,
2013-01-16 17:10:00,35.8,35.0,29.84,North,0,8.0,11.0,97,0.04,,,-99.99,Weather View 32 v70,2013-01-16 22:10:00,
2013-01-16 17:15:00,35.8,35.0,29.84,NNE,33,9.0,13.0,97,0.04,,,-99.99,Weather View 32 v70,2013-01-16 22:15:00,
2013-01-16 17:19:00,35.8,35.0,29.87,North,353,6.0,13.0,97,0.04,,,-99.99,Weather View 32 v70,2013-01-16 22:19:00,
2013-01-16 17:24:00,35.6,34.8,29.87,North,9,8.0,13.0,97,0.04,,,-99.99,Weather View 32 v70,2013-01-16 22:24:00,
2013-01-16 17:30:00,35.4,34.7,29.87,North,0,4.0,13.0,97,0.04,,,-99.99,Weather View 32 v70,2013-01-16 22:30:00,
2013-01-16 17:34:00,35.4,34.7,29.87,NNE,32,6.0,13.0,97,0.04,,,-99.99,Weather View 32 v70,2013-01-16 22:34:00,
2013-01-16 17:39:00,35.4,34.7,29.87,NNE,22,6.0,13.0,97,0.04,,,-99.99,Weather View 32 v70,2013-01-16 22:39:00,
2013-01-16 17:41:00,35.4,34.7,29.87,NNE,22,6.0,13.0,97,0.04,,,-99.99,Weather View 32 v70,2013-01-16 22:41:00,
2013-01-16 17:44:00,35.4,34.7,29.87,North,10,6.0,13.0,97,0.04,,,-99.99,Weather View 32 v70,2013-01-16 22:44:00,
2013-01-16 17:49:00,35.4,34.7,29.87,NNE,18,3.0,13.0,97,0.00,,,-99.99,Weather View 32 v70,2013-01-16 22:49:00,
2013-01-16 17:59:00,35.4,34.7,29.87,NNE,20,3.0,13.0,97,0.00,,,-99.99,Weather View 32 v70,2013-01-16 22:59:00,
2013-01-16 18:05:00,35.6,34.8,29.84,North,7,3.0,13.0,97,0.00,,,-99.99,Weather View 32 v70,2013-01-16 23:05:00,
2013-01-16 18:14:00,35.6,34.8,29.84,North,357,6.0,9.0,97,0.00,,,-99.99,Weather View 32 v70,2013-01-16 23:14:00,
2013-01-16 18:20:00,35.8,35.0,29.87,North,9,4.0,9.0,97,0.00,,,-99.99,Weather View 32 v70,2013-01-16 23:20:00,
2013-01-16 18:24:00,35.8,35.0,29.87,North,0,3.0,9.0,97,0.00,,,-99.99,Weather View 32 v70,2013-01-16 23:24:00,
2013-01-16 18:30:00,35.8,35.0,29.87,NNW,341,6.0,9.0,97,0.00,,,-99.99,Weather View 32 v70,2013-01-16 23:30:00,
2013-01-16 18:39:00,36.0,35.2,29.87,NW,316,4.0,8.0,97,0.00,,,-99.99,Weather View 32 v70,2013-01-16 23:39:00,
2013-01-16 18:41:00,36.0,35.2,29.87,NW,316,4.0,8.0,97,0.00,,,-99.99,Weather View 32 v70,2013-01-16 23:41:00,
2013-01-16 18:49:00,36.0,35.2,29.87,NNW,345,4.0,6.0,97,0.00,,,-99.99,Weather View 32 v70,2013-01-16 23:49:00,
2013-01-16 18:54:00,36.0,35.2,29.87,North,353,3.0,6.0,97,0.00,,,-99.99,Weather View 32 v70,2013-01-16 23:54:00,
2013-01-16 18:59:00,36.0,35.2,29.87,NNW,342,4.0,6.0,97,0.00,,,-99.99,Weather View 32 v70,2013-01-16 23:59:00,
2013-01-16 19:04:00,36.0,35.2,29.87,North,357,4.0,6.0,97,0.00,,,-99.99,Weather View 32 v70,2013-01-17 00:04:00,
2013-01-16 19:09:00,36.0,35.2,29.87,WNW,302,3.0,6.0,97,0.00,,,-99.99,Weather View 32 v70,2013-01-17 00:09:00,
2013-01-16 19:14:00,36.0,35.2,29.87,WNW,297,3.0,6.0,97,0.00,,,-99.99,Weather View 32 v70,2013-01-17 00:14:00,
2013-01-16 19:20:00,36.0,35.2,29.87,NW,309,5.0,6.0,97,0.00,,,-99.99,Weather View 32 v70,2013-01-17 00:20:00,
2013-01-16 19:24:00,36.0,35.2,29.87,NW,314,3.0,6.0,97,0.00,,,-99.99,Weather View 32 v70,2013-01-17 00:24:00,
2013-01-16 19:29:00,36.0,35.2,29.87,NW,324,3.0,6.0,97,0.00,,,-99.99,Weather View 32 v70,2013-01-17 00:29:00,
2013-01-16 19:35:00,36.0,35.2,29.87,NW,322,0.0,6.0,97,0.00,,,-99.99,Weather View 32 v70,2013-01-17 00:35:00,
2013-01-16 19:39:00,36.0,35.2,29.87,NNW,335,4.0,6.0,97,0.04,,,-99.99,Weather View 32 v70,2013-01-17 00:39:00,
2013-01-16 19:45:00,36.0,35.2,29.87,NNW,348,0.0,6.0,97,0.04,,,-99.99,Weather View 32 v70,2013-01-17 00:45:00,
2013-01-16 19:49:00,36.0,35.2,29.84,NNW,337,0.0,6.0,97,0.04,,,-99.99,Weather View 32 v70,2013-01-17 00:49:00,
2013-01-16 19:55:00,36.0,35.2,29.84,WNW,283,0.0,6.0,97,0.04,,,-99.99,Weather View 32 v70,2013-01-17 00:55:00,
2013-01-16 19:59:00,36.1,35.4,29.84,WSW,241,0.0,6.0,97,0.04,,,-99.99,Weather View 32 v70,2013-01-17 00:59:00,
2013-01-16 20:04:00,36.1,35.4,29.87,SW,236,3.0,6.0,97,0.04,,,-99.99,Weather View 32 v70,2013-01-17 01:04:00,
2013-01-16 20:09:00,36.1,35.4,29.87,WSW,244,2.0,6.0,97,0.04,,,-99.99,Weather View 32 v70,2013-01-17 01:09:00,
2013-01-16 20:15:00,36.1,35.4,29.87,WSW,254,3.0,6.0,97,0.04,,,-99.99,Weather View 32 v70,2013-01-17 01:15:00,
2013-01-16 20:19:00,36.1,35.4,29.87,WSW,254,0.0,6.0,97,0.04,,,-99.99,Weather View 32 v70,2013-01-17 01:19:00,
2013-01-16 20:24:00,36.1,35.4,29.87,WSW,254,0.0,4.0,97,0.04,,,-99.99,Weather View 32 v70,2013-01-17 01:24:00,
2013-01-16 20:29:00,36.3,35.5,29.87,WSW,254,0.0,4.0,97,0.04,,,-99.99,Weather View 32 v70,2013-01-17 01:29:00,
2013-01-16 20:34:00,36.3,35.5,29.84,WSW,252,3.0,4.0,97,0.04,,,-99.99,Weather View 32 v70,2013-01-17 01:34:00,
2013-01-16 20:39:00,36.3,35.5,29.84,SW,226,0.0,4.0,97,0.00,,,-99.99,Weather View 32 v70,2013-01-17 01:39:00,
2013-01-16 20:45:00,36.3,35.5,29.84,SW,226,0.0,4.0,97,0.00,,,-99.99,Weather View 32 v70,2013-01-17 01:45:00,
2013-01-16 20:49:00,36.5,35.7,29.84,WSW,244,0.0,4.0,97,0.00,,,-99.99,Weather View 32 v70,2013-01-17 01:49:00,
2013-01-16 20:54:00,36.7,35.9,29.84,SW,231,2.0,4.0,97,0.00,,,-99.99,Weather View 32 v70,2013-01-17 01:54:00,
2013-01-16 20:59:00,36.7,35.9,29.84,West,267,6.0,6.0,97,0.00,,,-99.99,Weather View 32 v70,2013-01-17 01:59:00,
2013-01-16 21:05:00,36.9,36.1,29.87,WSW,247,4.0,6.0,97,0.00,,,-99.99,Weather View 32 v70,2013-01-17 02:05:00,
2013-01-16 21:10:00,36.9,36.1,29.87,SW,221,2.0,6.0,97,0.00,,,-99.99,Weather View 32 v70,2013-01-17 02:10:00,
2013-01-16 21:14:00,36.9,36.1,29.87,SSW,205,6.0,6.0,97,0.00,,,-99.99,Weather View 32 v70,2013-01-17 02:14:00,
2013-01-16 21:20:00,36.7,35.9,29.87,SW,216,5.0,6.0,97,0.00,,,-99.99,Weather View 32 v70,2013-01-17 02:20:00,
2013-01-16 21:25:00,36.7,35.9,29.87,WSW,252,6.0,6.0,97,0.00,,,-99.99,Weather View 32 v70,2013-01-17 02:25:00,
2013-01-16 21:34:00,36.7,35.9,29.87,West,264,4.0,8.0,97,0.00,,,-99.99,Weather View 32 v70,2013-01-17 02:34:00,
2013-01-16 21:40:00,36.9,36.1,29.87,WSW,256,3.0,8.0,97,0.00,,,-99.99,Weather View 32 v70,2013-01-17 02:40:00,
2013-01-16 21:43:00,36.9,36.1,29.87,WSW,256,3.0,8.0,97,0.00,,,-99.99,Weather View 32 v70,2013-01-17 02:43:00,
2013-01-16 21:45:00,36.9,36.1,29.87,SW,223,4.0,8.0,97,0.00,,,-99.99,Weather View 32 v70,2013-01-17 02:45:00,
2013-01-16 21:49:00,36.9,36.1,29.87,SW,220,8.0,8.0,97,0.00,,,-99.99,Weather View 32 v70,2013-01-17 02:49:00,
2013-01-16 21:54:00,36.9,36.1,29.87,SW,230,9.0,9.0,97,0.00,,,-99.99,Weather View 32 v70,2013-01-17 02:54:00,
2013-01-16 21:59:00,36.9,36.1,29.87,West,275,8.0,9.0,97,0.00,,,-99.99,Weather View 32 v70,2013-01-17 02:59:00,
2013-01-16 22:05:00,36.9,36.1,29.87,WSW,254,8.0,11.0,97,0.00,,,-99.99,Weather View 32 v70,2013-01-17 03:05:00,
2013-01-16 22:09:00,37.0,36.3,29.87,West,273,4.0,11.0,97,0.00,,,-99.99,Weather View 32 v70,2013-01-17 03:09:00,
2013-01-16 22:14:00,37.0,36.3,29.87,WSW,242,6.0,11.0,97,0.00,,,-99.99,Weather View 32 v70,2013-01-17 03:14:00,
2013-01-16 22:20:00,37.0,36.3,29.87,WSW,239,6.0,11.0,97,0.00,,,-99.99,Weather View 32 v70,2013-01-17 03:20:00,
2013-01-16 22:24:00,37.0,36.3,29.87,West,266,8.0,11.0,97,0.00,,,-99.99,Weather View 32 v70,2013-01-17 03:24:00,
2013-01-16 22:29:00,37.0,36.3,29.87,WSW,258,5.0,11.0,97,0.00,,,-99.99,Weather View 32 v70,2013-01-17 03:29:00,
2013-01-16 22:34:00,37.0,36.3,29.87,West,279,5.0,11.0,97,0.00,,,-99.99,Weather View 32 v70,2013-01-17 03:34:00,
2013-01-16 22:40:00,37.0,36.3,29.87,West,266,6.0,11.0,97,0.00,,,-99.99,Weather View 32 v70,2013-01-17 03:40:00,
2013-01-16 22:43:00,37.0,36.3,29.87,West,266,6.0,11.0,97,0.00,,,-99.99,Weather View 32 v70,2013-01-17 03:43:00,
2013-01-16 22:45:00,37.0,36.3,29.87,SW,222,4.0,11.0,97,0.00,,,-99.99,Weather View 32 v70,2013-01-17 03:45:00,
2013-01-16 22:50:00,37.0,36.3,29.87,WSW,237,6.0,11.0,97,0.00,,,-99.99,Weather View 32 v70,2013-01-17 03:50:00,
2013-01-16 22:54:00,37.0,36.3,29.87,WSW,256,8.0,11.0,97,0.00,,,-99.99,Weather View 32 v70,2013-01-17 03:54:00,
2013-01-16 23:00:00,37.0,36.3,29.87,WNW,284,6.0,11.0,97,0.00,,,-99.99,Weather View 32 v70,2013-01-17 04:00:00,
2013-01-16 23:05:00,37.0,36.3,29.87,SW,219,8.0,11.0,97,0.00,,,-99.99,Weather View 32 v70,2013-01-17 04:05:00,
2013-01-16 23:10:00,37.0,36.3,29.87,West,264,6.0,11.0,97,0.04,,,-99.99,Weather View 32 v70,2013-01-17 04:10:00,
2013-01-16 23:14:00,37.0,36.3,29.87,West,263,4.0,11.0,97,0.04,,,-99.99,Weather View 32 v70,2013-01-17 04:14:00,
2013-01-16 23:20:00,37.0,36.3,29.87,WNW,292,6.0,11.0,97,0.04,,,-99.99,Weather View 32 v70,2013-01-17 04:20:00,
2013-01-16 23:25:00,37.0,36.3,29.87,WNW,298,6.0,11.0,97,0.04,,,-99.99,Weather View 32 v70,2013-01-17 04:25:00,
2013-01-16 23:34:00,37.0,36.3,29.87,WSW,252,6.0,11.0,97,0.04,,,-99.99,Weather View 32 v70,2013-01-17 04:34:00,
2013-01-16 23:40:00,37.0,36.3,29.87,WSW,253,3.0,11.0,97,0.04,,,-99.99,Weather View 32 v70,2013-01-17 04:40:00,
2013-01-16 23:44:00,37.0,36.3,29.87,WSW,253,3.0,11.0,97,0.04,,,-99.99,Weather View 32 v70,2013-01-17 04:44:00,
2013-01-16 23:45:00,37.0,36.3,29.87,West,275,5.0,11.0,97,0.04,,,-99.99,Weather View 32 v70,2013-01-17 04:45:00,
2013-01-16 23:49:00,37.0,36.3,29.87,West,272,8.0,11.0,97,0.04,,,-99.99,Weather View 32 v70,2013-01-17 04:49:00,
2013-01-16 23:55:00,37.0,36.3,29.87,West,262,4.0,11.0,97,0.04,,,-99.99,Weather View 32 v70,2013-01-17 04:55:00,